User: anonymous   Login
Location: Bishausen
(51.6334°N, 9.9631°E)
Time: 08:39:42
(UTC+00:00)
Language:

COSMOS 2406 - Orbit

View from above orbital plane
View from above orbital plane
View from above satellite
View from above satellite

Ground track
Ground track

The orbit data is extracted from the following two-line orbital elements,

1 28352U 04021A   24196.89849108  .00000150  00000-0  10805-3 0  9999
2 28352  70.9997 126.9539 0010387 147.9651 212.2104 14.11921801 35570
Epoch (UTC): 14 July 2024 21:33:49
Eccentricity: 0.0010387
inclination: 70.9997°
perigee height: 845 km
apogee height: 860 km
right ascension of ascending node: 126.9539°
argument of perigee: 147.9651°
revolutions per day: 14.11921801
mean anomaly at epoch: 212.2104°
orbit number at epoch: 3557

The dashed part of the orbit path shows where the satellite is in the earth's shadow,  

DLR